Location: F?ge?el
(45.8833°N, 22.5833°E)
Time: 23:39:24
(UTC+00:00)

Cosmos 1862 - Pass Details

Date: 17 November 2025
Orbit: 473 x 485 km, 82.5° (Epoch: 11 December)

Event Time Altitude Azimuth Distance (km) Brightness Sun altitude
Rises 16:41:05 0° 352° (N) 2,542 6.7 -18.1°
Reaches altitude 10° 16:43:12 10° 354° (N) 1,660 5.7 -18.5°
Maximum altitude 16:46:49 75° 80° (E) 501 2.9 -19.1°
Drops below altitude 10° 16:50:26 10° 167° (SSE) 1,654 5.7 -19.7°
Sets 16:52:32 0° 169° (S) 2,532 6.7 -20.1°
